This demonstration page uses our WeatherBlox Daily Observations layout. Learn more.

Left ArrowRight Arrow

36.19886, -115.1175

Hourly Observations for March 27, 2017

Temp ( °F °C ) Dew Point ( °F °C ) Humidity (%) Winds ( mph kmh ) Pressure ( in mb ) Visibility ( mi km ) Precip ( " mm )
12:53 am 00:53 Clear 63 17.2 32 undefined 31 31 S 9 15 29.86 1011 10 16 N/A
1:53 am 01:53 Clear 63 17.2 34 1.1 34 34 SSW 5 7 29.84 1011 10 16 N/A
2:53 am 02:53 Clear 62 16.7 38 3.3 41 41 SSW 12 19 29.82 1010 10 16 N/A
3:53 am 03:53 Clear 61 16.1 38 3.3 43 43 S 5 7 29.81 1009 10 16 N/A
4:53 am 04:53 Clear 60 15.6 37 2.8 42 42 SSW 14 22 29.80 1009 10 16 N/A
5:53 am 05:53 Clear 58 14.4 36 2.2 44 44 SE 6 9 29.78 1009 10 16 N/A
6:53 am 06:53 Sunny 56 13.3 37 2.8 49 49 N 7 11 29.79 1009 10 16 N/A
7:53 am 07:53 Sunny 58 14.4 38 3.3 48 48 N 7 11 29.81 1010 10 16 N/A
8:53 am 08:53 Sunny 62 16.7 36 2.2 38 38 NNW 13 20 29.83 1010 10 16 N/A
9:53 am 09:53 Sunny 65 18.3 37 2.8 36 36 NNW 24 39 29.83 1010 10 16 N/A
10:53 am 10:53 Sunny 68 20 32 undefined 26 26 NW 30 48 29.83 1010 10 16 N/A
11:53 am 11:53 Mostly Cloudy 65 18.3 32 undefined 29 29 N 18 30 29.84 1011 10 16 N/A
12:53 pm 12:53 Sunny 71 21.7 29 -1.7 21 21 NNW 16 26 29.81 1010 10 16 N/A
1:53 pm 13:53 Mostly Cloudy 71 21.7 26 -3.3 19 19 NW 17 28 29.79 1009 10 16 N/A
2:11 pm 14:11 Mostly Sunny 69 20.6 30 -1.1 23 23 W 9 15 29.68 1005 10 16 N/A
2:53 pm 14:53 Sunny 72 22.2 26 -3.3 18 18 NNW 16 26 29.79 1009 10 16 N/A
3:00 pm 15:00 Sunny 73 23 23 -5 15 15 NW 17 28 29.65 1004 10 16 N/A
3:53 pm 15:53 Mostly Sunny 74 23.3 13 -10.6 9 9 NW 20 31 29.78 1008 10 16 N/A
4:53 pm 16:53 Sunny 72 22.2 11 -11.7 9 9 NNW 21 33 29.79 1009 10 16 N/A
5:53 pm 17:53 Sunny 70 21.1 11 -11.7 10 10 NNW 17 28 29.82 1010 10 16 N/A
6:53 pm 18:53 Mostly Sunny 65 18.3 31 -0.6 28 28 N 12 19 29.86 1011 10 16 N/A
7:53 pm 19:53 Clear 64 17.8 25 -3.9 23 23 N 14 22 29.91 1013 10 16 N/A
8:53 pm 20:53 Clear 62 16.7 28 -2.2 28 28 N 13 20 29.95 1014 10 16 N/A
9:53 pm 21:53 Mostly Cloudy 60 15.6 29 -1.7 31 31 NNW 20 31 29.96 1015 10 16 N/A
10:53 pm 22:53 Clear 59 15 27 -2.8 29 29 NNW 16 26 29.97 1015 10 16 N/A
11:53 pm 23:53 Clear 58 14.4 26 -3.3 29 29 NNW 25 41 29.98 1015 10 16 N/A

Powered by AerisWeather